Weather History for Falls City, NE

Change the Weather History Date:

Saturday, January 28, 2012

  Actual Average Record
Temperature  
Mean Temperature 34 °F -  
Max Temperature 46 °F 36 °F 69 °F (2013)
Min Temperature 21 °F 13 °F -10 °F (1977)
Degree Days  
Heating Degree Days 32    
Moisture  
Dew Point 13 °F    
Average Humidity 47    
Maximum Humidity 78    
Minimum Humidity 22    
Precipitation  
Precipitation 0.00 in - - ()
Sea Level Pressure  
Sea Level Pressure 30.25 in    
Wind  
Wind Speed 13 mph (West)    
Max Wind Speed 29 mph    
Max Gust Speed 38 mph    
Visibility 10 miles    
Events      
Averages and records for this station are not official NWS values.
T = Trace of Precipitation, MM = Missing Value Source: NWS Daily Summary

Daily Weather History Graph

Daily Weather History Graph

Search for Another Location

Airport:

Trip Planner

Search our weather history database for the weather conditions in past years. The results will help you decide how hot, cold, wet, or windy it might be!

Date:

Astronomy

Jan. 28, 2012 Rise Set
Actual Time 7:34 AM CST 5:36 PM CST
Civil Twilight 7:05 AM CST 6:04 PM CST
Nautical Twilight 6:33 AM CST 6:37 PM CST
Astronomical Twilight 6:01 AM CST 7:09 PM CST
Moon 9:57 AM CST (1/28) 11:25 PM CST (1/28)
Length of Visible Light 10h 59m
Length of Day
10h 01m
Waxing Crescent, 28% of the Moon is Illuminated
Jan 28
Waxing Crescent
Jan 30
First Quarter
Feb 7
Full
Feb 14
Last Quarter
Feb 21
New

Hourly Weather History & Observations

Time (CST) Temp. Windchill Dew Point Humidity Pressure Visibility Wind Dir Wind Speed Gust Speed Precip Events Conditions
12:53 AM 26.1 °F 16.2 °F 17.1 °F 69% 30.25 in 10.0 mi West 10.4 mph - N/A   Clear
1:53 AM 24.1 °F 14.4 °F 16.0 °F 71% 30.25 in 10.0 mi WNW 9.2 mph - N/A   Clear
2:53 AM 24.1 °F 13.1 °F 16.0 °F 71% 30.27 in 10.0 mi West 11.5 mph - N/A   Clear
4:53 AM 24.1 °F 12.5 °F 16.0 °F 71% 30.27 in 10.0 mi West 12.7 mph - N/A   Clear
5:53 AM 23.0 °F 11.1 °F 15.8 °F 74% 30.25 in 10.0 mi WSW 12.7 mph - N/A   Clear
6:53 AM 23.0 °F 11.7 °F 15.8 °F 74% 30.24 in 10.0 mi West 11.5 mph - N/A   Clear
7:53 AM 21.9 °F 10.4 °F 16.0 °F 78% 30.30 in 10.0 mi WSW 11.5 mph - N/A   Clear
8:53 AM 25.0 °F 14.2 °F 17.1 °F 72% 30.32 in 10.0 mi West 11.5 mph - N/A   Clear
9:53 AM 30.9 °F 21.2 °F 19.0 °F 61% 30.33 in 10.0 mi WNW 12.7 mph - N/A   Clear
10:53 AM 37.0 °F 28.5 °F 18.0 °F 46% 30.34 in 10.0 mi West 13.8 mph - N/A   Clear
11:53 AM 42.1 °F 33.1 °F 14.0 °F 32% 30.30 in 10.0 mi WSW 20.7 mph 29.9 mph N/A   Clear
12:53 PM 46.0 °F 38.5 °F 12.0 °F 25% 30.25 in 10.0 mi WSW 19.6 mph 29.9 mph N/A   Clear
1:53 PM 46.9 °F - 10.0 °F 22% 30.23 in 10.0 mi West 25.3 mph 38.0 mph N/A   Clear
2:53 PM 46.9 °F - 10.0 °F 22% 30.22 in 10.0 mi West 28.8 mph 36.8 mph N/A   Clear
3:53 PM 46.9 °F - 10.0 °F 22% 30.22 in 10.0 mi WNW 25.3 mph 32.2 mph N/A   Clear
4:53 PM 44.1 °F 36.8 °F 10.0 °F 25% 30.22 in 10.0 mi WNW 16.1 mph 24.2 mph N/A   Clear
5:53 PM 37.9 °F 31.5 °F 9.0 °F 30% 30.23 in 10.0 mi West 9.2 mph - N/A   Clear
6:53 PM 34.0 °F 26.6 °F 9.0 °F 35% 30.23 in 10.0 mi WSW 9.2 mph - N/A   Clear
7:53 PM 33.1 °F 25.5 °F 10.0 °F 38% 30.23 in 10.0 mi WSW 9.2 mph - N/A   Clear
8:53 PM 34.0 °F 26.6 °F 10.0 °F 37% 30.22 in 10.0 mi WSW 9.2 mph - N/A   Clear
9:53 PM 35.1 °F 26.9 °F 10.0 °F 35% 30.21 in 10.0 mi WSW 11.5 mph - N/A   Clear
10:53 PM 35.1 °F 26.4 °F 9.0 °F 34% 30.20 in 10.0 mi WSW 12.7 mph - N/A   Clear
11:53 PM 35.1 °F 26.9 °F 9.0 °F 34% 30.20 in 10.0 mi WSW 11.5 mph - N/A   Clear